Simultaneous Nadir Overpasses (SNOs) Predictions

Prediction of SNOs between METOP-C and LANDSAT-8 Satellite Orbit:

Table of predicted SNOs for the next 14.0 days since TLE Epoch: 11/13/2020
Index Date (METOP-C) Time (METOP-C) Lat,Lon (METOP-C) SZA (METOP-C ) Date (LANDSAT-8) Time (LANDSAT-8) Lat,Lon (LANDSAT-8) SZA (LANDSAT-8 ) Distance(km) Time Diff (sec)
1 11/14/2020 11:00:44 81.05, 53.37 101.67 11/14/2020 11:01:52 81.05, 53.46 101.71 1.60 68
2 11/14/2020 11:51:23 -81.08,-138.54 78.22 11/14/2020 11:51:18 -81.07,-138.62 78.24 1.62 5
3 11/17/2020 06:35:08 81.06, 119.86 102.37 11/17/2020 06:36:08 81.06, 119.98 102.41 2.02 60
4 11/17/2020 07:25:47 -81.08, -72.07 77.53 11/17/2020 07:25:34 -81.08, -72.07 77.54 0.27 13
5 11/20/2020 02:09:32 81.06,-173.66 103.01 11/20/2020 02:10:24 81.06,-173.55 103.05 2.08 52
6 11/20/2020 03:00:11 -81.08, -5.63 76.89 11/20/2020 02:59:50 -81.09, -5.57 76.89 1.02 21
7 11/22/2020 21:43:55 81.06,-107.21 103.61 11/22/2020 21:44:39 81.06,-107.11 103.64 1.79 44
8 11/22/2020 22:34:34 -81.09, 60.80 76.30 11/22/2020 22:34:05 -81.09, 60.90 76.30 1.72 29
9 11/25/2020 17:18:19 81.06, -40.77 104.15 11/25/2020 17:18:55 81.06, -40.70 104.17 1.20 36
